sat.trackr.live / text

‹ back to catalog

STARLINK-4090

NORAD 53165 · 2022-083AK

PAYLOAD ACTIVE UNKNOWN

§ Identity

Operator
Country
US
Launch date
2022-07-17
Launch site
AFETR
Launch vehicle
Mass (kg)
RCS (m²)

Purposes: comms

External: N2YO · Heavens-Above · Gunter

§ Orbital elements

Epoch: 2026-05-25T03:03:50.713056Z

Period
95.44 min
Inclination
53.2124°
Eccentricity
0.0001108
Mean motion
15.08847184 rev/d
Perigee alt
539.0 km
Apogee alt
540.5 km
Semi-major
6,917.9 km
B*
-1.4542e-4
RAAN
180.9772°
Arg perigee
90.3144°
Mean anomaly
269.7975°
Rev number
21,290

§ Raw data

STARLINK-40901 53165U 22083AK  26145.12767029 -.00002602  00000+0 -14542-3 0  99972 53165  53.2124 180.9772 0001108  90.3144 269.7975 15.08847184212909

JSON: /api/v1/satellites/53165 · /tle

For live sub-satellite position, see the globe view (requires WebGL).

§ Visibility from observer

Set your observer location to see the next 7 days of passes ≥ 10°. The values pass through the URL so the page stays shareable.

No JS? Fill the form by hand. The geolocation button needs JavaScript.